QPF
0.02 0.01 0.01 0.01 0.01 0.01 0.01 0.02 0.02 0.01 0.00 0.00 0.00 0.00 0.00 0.00 0.00 0.00 0.00 0.00 0.00 0.00 0.00 0.00 0.00 0.00 0.00 0.00 0.00 0.00 0.00 0.00 0.00 0.00 0.00 0.00 0.00 0.00 0.00 0.00 0.00 0.00 0.00 0.00
0.02 0.02 0.01 0.01 0.01 0.01 0.01 0.01 0.01 0.01 0.00 0.00 0.00 0.00 0.00 0.00 0.00 0.00 0.00 0.00 0.00 0.00 0.00 0.00 0.00 0.00 0.00 0.00 0.00 0.00 0.00 0.00 0.00 0.00 0.00 0.00 0.00 0.00 0.00 0.00 0.00 0.00 0.00 0.00
0.03 0.03 0.03 0.03 0.02 0.02 0.01 0.01 0.01 0.01 0.01 0.00 0.00 0.00 0.00 0.00 0.00 0.00 0.01 0.00 0.00 0.00 0.00 0.00 0.00 0.00 0.00 0.00 0.00 0.00 0.00 0.00 0.00 0.00 0.00 0.00 0.00 0.00 0.00 0.00 0.00 0.00 0.00 0.00
0.04 0.04 0.06 0.04 0.01 0.01 0.01 0.01 0.01 0.01 0.00 0.00 0.00 0.00 0.00 0.00 0.00 0.00 0.00 0.00 0.00 0.00 0.00 0.01 0.00 0.00 0.00 0.00 0.00 0.00 0.00 0.00 0.00 0.00 0.00 0.00 0.00 0.00 0.00 0.00 0.00 0.00 0.01 0.01
0.04 0.04 0.04 0.02 0.01 0.01 0.01 0.02 0.01 0.01 0.00 0.00 0.00 0.00 0.00 0.00 0.01 0.01 0.01 0.00 0.00 0.00 0.00 0.01 0.01 0.01 0.01 0.00 0.00 0.00 0.00 0.00 0.00 0.00 0.00 0.00 0.00 0.00 0.00 0.01 0.01 0.01 0.01 0.01
0.04 0.04 0.03 0.02 0.01 0.00 0.01 0.02 0.01 0.00 0.00 0.00 0.00 0.01 0.01 0.00 0.00 0.01 0.01 0.00 0.00 0.00 0.00 0.00 0.01 0.01 0.01 0.01 0.00 0.00 0.00 0.00 0.00 0.00 0.00 0.01 0.01 0.01 0.01 0.01 0.01 0.01 0.01 0.00
0.03 0.03 0.02 0.01 0.00 0.01 0.02 0.02 0.01 0.00 0.00 0.01 0.01 0.02 0.01 0.01 0.00 0.00 0.00 0.00 0.00 0.00 0.00 0.00 0.00 0.01 0.01 0.01 0.01 0.01 0.00 0.00 0.00 0.00 0.00 0.00 0.00 0.00 0.00 0.01 0.00 0.00 0.00 0.00
0.03 0.03 0.02 0.01 0.01 0.02 0.02 0.01 0.01 0.01 0.01 0.01 0.01 0.02 0.02 0.01 0.00 0.00 0.00 0.00 0.00 0.00 0.00 0.00 0.00 0.01 0.00 0.01 0.01 0.01 0.01 0.00 0.00 0.00 0.00 0.00 0.00 0.00 0.00 0.00 0.00 0.00 0.00 0.00
0.02 0.03 0.02 0.01 0.01 0.01 0.01 0.01 0.01 0.01 0.01 0.01 0.01 0.01 0.02 0.02 0.02 0.01 0.01 0.01 0.00 0.00 0.00 0.00 0.00 0.01 0.01 0.00 0.01 0.01 0.01 0.01 0.01 0.00 0.00 0.00 0.00 0.00 0.00 0.00 0.00 0.00 0.00 0.00
0.02 0.02 0.01 0.01 0.01 0.01 0.01 0.01 0.01 0.01 0.01 0.01 0.01 0.01 0.01 0.02 0.02 0.03 0.02 0.02 0.01 0.00 0.00 0.00 0.01 0.01 0.01 0.01 0.00 0.00 0.01 0.01 0.01 0.01 0.00 0.00 0.00 0.00 0.00 0.00 0.00 0.00 0.00 0.00
0.02 0.02 0.01 0.01 0.01 0.01 0.01 0.01 0.01 0.01 0.01 0.01 0.01 0.01 0.01 0.01 0.01 0.02 0.02 0.02 0.02 0.01 0.01 0.01 0.01 0.02 0.01 0.01 0.01 0.01 0.01 0.01 0.01 0.01 0.01 0.00 0.00 0.00 0.01 0.01 0.01 0.01 0.01 0.01
0.02 0.02 0.02 0.01 0.01 0.01 0.01 0.01 0.01 0.01 0.01 0.01 0.01 0.01 0.01 0.01 0.01 0.01 0.01 0.01 0.01 0.01 0.01 0.01 0.01 0.01 0.02 0.01 0.01 0.01 0.01 0.00 0.00 0.01 0.01 0.01 0.01 0.01 0.01 0.01 0.01 0.01 0.01 0.01
0.02 0.01 0.01 0.01 0.01 0.01 0.01 0.01 0.01 0.01 0.01 0.01 0.01 0.01 0.01 0.01 0.01 0.01 0.01 0.01 0.01 0.01 0.01 0.01 0.01 0.01 0.01 0.01 0.01 0.01 0.01 0.00 0.00 0.01 0.01 0.01 0.01 0.01 0.01 0.01 0.01 0.01 0.01 0.01
0.01 0.01 0.01 0.01 0.01 0.01 0.01 0.01 0.01 0.01 0.01 0.01 0.01 0.01 0.01 0.01 0.02 0.02 0.02 0.02 0.02 0.01 0.01 0.01 0.01 0.01 0.01 0.01 0.01 0.01 0.00 0.00 0.00 0.01 0.01 0.01 0.00 0.00 0.01 0.01 0.01 0.01 0.01 0.01
0.01 0.01 0.01 0.01 0.01 0.01 0.01 0.01 0.01 0.01 0.01 0.01 0.01 0.01 0.01 0.01 0.01 0.02 0.02 0.02 0.02 0.02 0.01 0.01 0.01 0.01 0.00 0.01 0.01 0.01 0.00 0.00 0.00 0.00 0.00 0.01 0.01 0.01 0.01 0.01 0.01 0.00 0.00 0.00
0.01 0.01 0.01 0.01 0.01 0.01 0.02 0.02 0.02 0.02 0.02 0.02 0.02 0.02 0.02 0.02 0.01 0.01 0.01 0.01 0.01 0.02 0.01 0.01 0.01 0.01 0.00 0.00 0.01 0.01 0.01 0.01 0.01 0.01 0.01 0.00 0.01 0.01 0.01 0.00 0.00 0.01 0.00 0.00
0.01 0.01 0.01 0.01 0.01 0.02 0.02 0.02 0.02 0.02 0.02 0.02 0.03 0.03 0.03 0.02 0.02 0.02 0.01 0.01 0.01 0.01 0.01 0.01 0.01 0.01 0.01 0.01 0.01 0.01 0.01 0.01 0.01 0.01 0.00 0.00 0.01 0.01 0.01 0.01 0.01 0.01 0.01 0.01
0.01 0.01 0.01 0.01 0.02 0.02 0.02 0.02 0.02 0.02 0.02 0.02 0.03 0.03 0.03 0.02 0.02 0.02 0.01 0.01 0.01 0.01 0.01 0.01 0.01 0.01 0.01 0.01 0.01 0.01 0.01 0.01 0.01 0.01 0.01 0.01 0.01 0.01 0.01 0.01 0.01 0.01 0.01 0.00
0.01 0.01 0.01 0.01 0.02 0.02 0.02 0.01 0.02 0.02 0.02 0.02 0.02 0.02 0.02 0.02 0.02 0.02 0.01 0.01 0.01 0.01 0.01 0.01 0.01 0.01 0.01 0.01 0.01 0.01 0.01 0.01 0.01 0.01 0.01 0.01 0.01 0.01 0.01 0.01 0.01 0.01 0.01 0.01
0.01 0.01 0.01 0.01 0.01 0.01 0.01 0.01 0.01 0.02 0.02 0.02 0.02 0.02 0.02 0.02 0.01 0.01 0.01 0.01 0.01 0.01 0.01 0.01 0.01 0.01 0.01 0.01 0.01 0.01 0.01 0.01 0.01 0.01 0.01 0.01 0.01 0.01 0.01 0.01 0.01 0.01 0.01 0.01
0.01 0.01 0.01 0.01 0.01 0.01 0.01 0.01 0.01 0.01 0.02 0.02 0.02 0.01 0.01 0.01 0.01 0.01 0.01 0.01 0.01 0.01 0.01 0.01 0.01 0.01 0.01 0.01 0.01 0.01 0.01 0.01 0.01 0.01 0.01 0.01 0.01 0.01 0.01 0.01 0.01 0.01 0.01 0.01
0.01 0.01 0.01 0.01 0.01 0.01 0.01 0.01 0.01 0.01 0.01 0.01 0.01 0.01 0.01 0.01 0.01 0.01 0.01 0.01 0.01 0.01 0.01 0.01 0.01 0.01 0.01 0.01 0.01 0.01 0.01 0.01 0.01 0.01 0.01 0.01 0.01 0.01 0.01 0.01 0.01 0.01 0.01 0.01
0.01 0.01 0.01 0.01 0.01 0.01 0.01 0.01 0.01 0.01 0.01 0.01 0.01 0.01 0.01 0.01 0.01 0.01 0.01 0.01 0.01 0.01 0.01 0.01 0.01 0.01 0.01 0.01 0.01 0.01 0.01 0.01 0.01 0.01 0.01 0.01 0.01 0.01 0.01 0.01 0.01 0.01 0.01 0.01
0.01 0.01 0.01 0.01 0.01 0.01 0.01 0.01 0.01 0.01 0.01 0.01 0.01 0.01 0.01 0.01 0.01 0.01 0.01 0.01 0.01 0.01 0.01 0.01 0.01 0.01 0.01 0.01 0.01 0.01 0.01 0.01 0.01 0.01 0.01 0.01 0.01 0.01 0.01 0.01 0.01 0.01 0.01 0.01
0.01 0.01 0.01 0.01 0.01 0.01 0.01 0.01 0.01 0.01 0.01 0.01 0.01 0.01 0.01 0.01 0.01 0.01 0.01 0.01 0.01 0.01 0.01 0.01 0.01 0.01 0.01 0.01 0.01 0.01 0.01 0.01 0.01 0.01 0.01 0.01 0.01 0.01 0.01 0.01 0.01 0.01 0.01 0.01
0.01 0.01 0.01 0.01 0.01 0.01 0.01 0.01 0.01 0.01 0.01 0.01 0.01 0.01 0.01 0.01 0.01 0.01 0.01 0.01 0.01 0.01 0.01 0.01 0.01 0.01 0.01 0.01 0.01 0.01 0.01 0.01 0.01 0.01 0.01 0.01 0.01 0.01 0.01 0.01 0.01 0.01 0.01 0.01
0.00 0.01 0.01 0.01 0.01 0.01 0.01 0.01 0.01 0.01 0.01 0.01 0.01 0.01 0.01 0.01 0.01 0.01 0.01 0.01 0.01 0.01 0.01 0.01 0.01 0.02 0.02 0.01 0.01 0.01 0.01 0.01 0.01 0.01 0.01 0.01 0.01 0.01 0.01 0.01 0.01 0.01 0.01 0.01
MSLP
1019.91 1019.67 1019.42 1019.14 1018.78 1018.30 1017.68 1016.90 1015.97 1014.92 1013.83 1012.77 1011.83 1011.10 1010.63 1010.44 1010.51 1010.78 1011.17 1011.55 1011.83 1011.89 1011.69 1011.20 1010.43 1009.43 1008.30 1007.12 1006.02 1005.07 1004.34 1003.87 1003.68 1003.76 1004.08 1004.60 1005.26 1006.04 1006.88 1007.75 1008.64 1009.53 1010.40 1011.25
1020.23 1019.98 1019.71 1019.41 1019.05 1018.60 1018.04 1017.36 1016.57 1015.69 1014.78 1013.89 1013.11 1012.49 1012.07 1011.87 1011.88 1012.04 1012.30 1012.55 1012.72 1012.70 1012.45 1011.95 1011.19 1010.21 1009.09 1007.90 1006.74 1005.68 1004.80 1004.15 1003.75 1003.61 1003.72 1004.06 1004.59 1005.27 1006.05 1006.91 1007.82 1008.73 1009.64 1010.52
1020.43 1020.16 1019.88 1019.56 1019.20 1018.78 1018.29 1017.73 1017.10 1016.41 1015.71 1015.02 1014.41 1013.90 1013.54 1013.34 1013.29 1013.35 1013.47 1013.59 1013.63 1013.53 1013.24 1012.74 1012.02 1011.10 1010.03 1008.88 1007.71 1006.60 1005.61 1004.80 1004.21 1003.86 1003.76 1003.90 1004.26 1004.81 1005.51 1006.32 1007.19 1008.11 1009.02 1009.91
1020.55 1020.28 1019.98 1019.66 1019.32 1018.95 1018.55 1018.13 1017.66 1017.18 1016.68 1016.20 1015.76 1015.38 1015.08 1014.88 1014.76 1014.71 1014.69 1014.67 1014.58 1014.40 1014.07 1013.58 1012.91 1012.07 1011.10 1010.02 1008.89 1007.78 1006.74 1005.82 1005.08 1004.54 1004.24 1004.18 1004.36 1004.75 1005.32 1006.04 1006.85 1007.72 1008.61 1009.48
1020.61 1020.35 1020.06 1019.76 1019.47 1019.17 1018.88 1018.59 1018.30 1018.01 1017.71 1017.42 1017.14 1016.87 1016.63 1016.42 1016.23 1016.07 1015.92 1015.75 1015.54 1015.27 1014.90 1014.42 1013.81 1013.07 1012.20 1011.23 1010.19 1009.13 1008.08 1007.12 1006.27 1005.60 1005.14 1004.90 1004.90 1005.13 1005.55 1006.14 1006.84 1007.62 1008.43 1009.23
1020.58 1020.35 1020.11 1019.87 1019.64 1019.43 1019.26 1019.11 1018.98 1018.86 1018.74 1018.61 1018.46 1018.28 1018.08 1017.84 1017.59 1017.32 1017.04 1016.74 1016.41 1016.05 1015.64 1015.17 1014.62 1013.98 1013.24 1012.40 1011.48 1010.51 1009.53 1008.57 1007.69 1006.94 1006.36 1005.99 1005.83 1005.90 1006.16 1006.59 1007.15 1007.80 1008.48 1009.17
1020.44 1020.28 1020.11 1019.94 1019.80 1019.70 1019.64 1019.61 1019.62 1019.64 1019.65 1019.64 1019.58 1019.46 1019.28 1019.02 1018.70 1018.34 1017.94 1017.52 1017.09 1016.65 1016.21 1015.75 1015.26 1014.72 1014.11 1013.42 1012.65 1011.81 1010.93 1010.05 1009.20 1008.43 1007.80 1007.33 1007.06 1006.98 1007.08 1007.35 1007.74 1008.22 1008.75 1009.29
1020.19 1020.10 1020.02 1019.96 1019.92 1019.92 1019.96 1020.03 1020.13 1020.24 1020.33 1020.39 1020.38 1020.29 1020.10 1019.81 1019.44 1018.99 1018.50 1017.99 1017.49 1017.00 1016.54 1016.10 1015.67 1015.22 1014.75 1014.21 1013.60 1012.93 1012.19 1011.42 1010.66 1009.94 1009.30 1008.80 1008.44 1008.25 1008.22 1008.32 1008.54 1008.84 1009.18 1009.55
1019.83 1019.84 1019.86 1019.90 1019.96 1020.04 1020.15 1020.29 1020.43 1020.58 1020.70 1020.78 1020.77 1020.67 1020.47 1020.15 1019.73 1019.24 1018.69 1018.13 1017.58 1017.07 1016.61 1016.20 1015.83 1015.48 1015.13 1014.74 1014.30 1013.79 1013.22 1012.60 1011.96 1011.32 1010.74 1010.24 1009.85 1009.58 1009.44 1009.41 1009.46 1009.58 1009.75 1009.93
1019.42 1019.53 1019.66 1019.79 1019.94 1020.08 1020.23 1020.38 1020.53 1020.66 1020.75 1020.79 1020.76 1020.63 1020.39 1020.05 1019.61 1019.10 1018.54 1017.96 1017.41 1016.90 1016.46 1016.10 1015.79 1015.53 1015.29 1015.03 1014.74 1014.39 1013.98 1013.51 1013.00 1012.48 1011.98 1011.53 1011.14 1010.84 1010.62 1010.48 1010.40 1010.37 1010.37 1010.40
1019.05 1019.26 1019.48 1019.71 1019.91 1020.09 1020.24 1020.36 1020.46 1020.52 1020.55 1020.52 1020.43 1020.25 1019.98 1019.62 1019.18 1018.68 1018.14 1017.59 1017.07 1016.59 1016.19 1015.87 1015.62 1015.43 1015.27 1015.12 1014.94 1014.72 1014.45 1014.13 1013.76 1013.36 1012.95 1012.56 1012.21 1011.90 1011.65 1011.44 1011.27 1011.13 1011.01 1010.91
1018.81 1019.11 1019.43 1019.71 1019.95 1020.13 1020.25 1020.32 1020.33 1020.30 1020.23 1020.11 1019.93 1019.69 1019.40 1019.03 1018.61 1018.14 1017.64 1017.14 1016.67 1016.25 1015.89 1015.61 1015.40 1015.25 1015.15 1015.06 1014.96 1014.84 1014.67 1014.45 1014.19 1013.90 1013.59 1013.28 1012.97 1012.69 1012.43 1012.20 1011.98 1011.78 1011.59 1011.42
1018.76 1019.15 1019.53 1019.86 1020.11 1020.27 1020.34 1020.33 1020.25 1020.11 1019.92 1019.70 1019.44 1019.14 1018.81 1018.45 1018.05 1017.62 1017.18 1016.74 1016.32 1015.95 1015.63 1015.38 1015.19 1015.06 1014.97 1014.90 1014.84 1014.76 1014.66 1014.51 1014.34 1014.13 1013.90 1013.66 1013.42 1013.18 1012.95 1012.72 1012.50 1012.29 1012.08 1011.88
1018.91 1019.37 1019.80 1020.16 1020.41 1020.54 1020.55 1020.46 1020.27 1020.02 1019.73 1019.41 1019.07 1018.72 1018.36 1017.99 1017.61 1017.22 1016.83 1016.44 1016.07 1015.73 1015.44 1015.19 1015.00 1014.85 1014.75 1014.67 1014.61 1014.54 1014.46 1014.35 1014.23 1014.08 1013.92 1013.74 1013.55 1013.37 1013.18 1012.99 1012.80 1012.61 1012.42 1012.25
1019.22 1019.73 1020.19 1020.56 1020.79 1020.89 1020.84 1020.67 1020.40 1020.06 1019.67 1019.26 1018.85 1018.46 1018.07 1017.69 1017.32 1016.96 1016.60 1016.24 1015.90 1015.57 1015.27 1015.01 1014.79 1014.61 1014.47 1014.36 1014.27 1014.19 1014.11 1014.02 1013.92 1013.82 1013.70 1013.58 1013.45 1013.31 1013.18 1013.04 1012.90 1012.75 1012.61 1012.49
1019.59 1020.12 1020.59 1020.95 1021.17 1021.23 1021.13 1020.90 1020.56 1020.14 1019.68 1019.21 1018.75 1018.31 1017.90 1017.51 1017.14 1016.78 1016.42 1016.07 1015.72 1015.38 1015.06 1014.77 1014.51 1014.28 1014.09 1013.94 1013.82 1013.72 1013.64 1013.56 1013.48 1013.41 1013.33 1013.25 1013.17 1013.08 1012.99 1012.91 1012.82 1012.73 1012.65 1012.58
1019.90 1020.43 1020.89 1021.22 1021.41 1021.43 1021.29 1021.01 1020.63 1020.16 1019.66 1019.15 1018.65 1018.18 1017.75 1017.33 1016.94 1016.57 1016.19 1015.82 1015.44 1015.08 1014.72 1014.39 1014.08 1013.81 1013.59 1013.41 1013.27 1013.16 1013.08 1013.02 1012.97 1012.92 1012.88 1012.84 1012.79 1012.74 1012.70 1012.65 1012.61 1012.57 1012.55 1012.54
1020.06 1020.56 1020.97 1021.26 1021.41 1021.39 1021.21 1020.90 1020.49 1020.00 1019.48 1018.95 1018.43 1017.94 1017.47 1017.04 1016.62 1016.21 1015.80 1015.39 1014.98 1014.57 1014.17 1013.80 1013.47 1013.18 1012.94 1012.75 1012.62 1012.52 1012.47 1012.44 1012.42 1012.42 1012.41 1012.40 1012.39 1012.37 1012.35 1012.34 1012.33 1012.33 1012.34 1012.38
1020.02 1020.45 1020.79 1021.02 1021.11 1021.04 1020.83 1020.50 1020.07 1019.58 1019.05 1018.51 1017.98 1017.47 1016.99 1016.52 1016.07 1015.62 1015.17 1014.72 1014.26 1013.82 1013.39 1013.00 1012.65 1012.36 1012.13 1011.97 1011.87 1011.82 1011.81 1011.84 1011.87 1011.91 1011.95 1011.98 1011.99 1011.99 1011.99 1011.99 1012.00 1012.02 1012.06 1012.13
1019.80 1020.13 1020.39 1020.53 1020.55 1020.43 1020.18 1019.82 1019.38 1018.88 1018.35 1017.82 1017.28 1016.77 1016.26 1015.77 1015.29 1014.80 1014.31 1013.81 1013.32 1012.85 1012.40 1012.00 1011.66 1011.39 1011.20 1011.09 1011.04 1011.06 1011.12 1011.21 1011.31 1011.40 1011.48 1011.55 1011.59 1011.61 1011.62 1011.62 1011.64 1011.67 1011.72 1011.81
1019.47 1019.70 1019.85 1019.90 1019.83 1019.64 1019.34 1018.96 1018.50 1017.99 1017.47 1016.93 1016.39 1015.87 1015.35 1014.83 1014.31 1013.79 1013.26 1012.73 1012.22 1011.72 1011.27 1010.88 1010.56 1010.33 1010.19 1010.13 1010.15 1010.24 1010.37 1010.53 1010.69 1010.84 1010.97 1011.06 1011.13 1011.17 1011.19 1011.21 1011.23 1011.27 1011.34 1011.44
1019.13 1019.25 1019.29 1019.23 1019.08 1018.82 1018.47 1018.04 1017.56 1017.04 1016.50 1015.96 1015.42 1014.88 1014.34 1013.80 1013.25 1012.69 1012.13 1011.58 1011.04 1010.54 1010.09 1009.71 1009.41 1009.21 1009.11 1009.11 1009.19 1009.34 1009.53 1009.75 1009.96 1010.16 1010.33 1010.46 1010.55 1010.62 1010.66 1010.69 1010.73 1010.80 1010.89 1011.02
1018.88 1018.89 1018.83 1018.67 1018.42 1018.09 1017.68 1017.20 1016.69 1016.15 1015.59 1015.03 1014.47 1013.91 1013.35 1012.78 1012.20 1011.62 1011.03 1010.45 1009.89 1009.37 1008.92 1008.54 1008.26 1008.08 1008.01 1008.03 1008.15 1008.33 1008.56 1008.81 1009.06 1009.29 1009.50 1009.66 1009.79 1009.89 1009.97 1010.04 1010.12 1010.23 1010.36 1010.55
1018.75 1018.67 1018.52 1018.27 1017.94 1017.53 1017.06 1016.54 1015.98 1015.41 1014.82 1014.24 1013.65 1013.06 1012.47 1011.87 1011.26 1010.64 1010.02 1009.41 1008.83 1008.29 1007.82 1007.43 1007.14 1006.96 1006.88 1006.91 1007.02 1007.20 1007.44 1007.69 1007.96 1008.21 1008.44 1008.64 1008.80 1008.95 1009.08 1009.22 1009.36 1009.54 1009.75 1009.99
1018.74 1018.59 1018.36 1018.04 1017.64 1017.16 1016.63 1016.06 1015.46 1014.85 1014.23 1013.62 1013.00 1012.38 1011.75 1011.11 1010.47 1009.81 1009.16 1008.51 1007.90 1007.33 1006.82 1006.40 1006.08 1005.86 1005.74 1005.73 1005.81 1005.96 1006.17 1006.41 1006.67 1006.92 1007.17 1007.40 1007.61 1007.81 1008.02 1008.23 1008.47 1008.73 1009.03 1009.37
1018.80 1018.59 1018.29 1017.91 1017.45 1016.92 1016.34 1015.73 1015.10 1014.45 1013.80 1013.15 1012.50 1011.84 1011.18 1010.51 1009.82 1009.12 1008.43 1007.74 1007.08 1006.47 1005.92 1005.45 1005.07 1004.79 1004.62 1004.55 1004.57 1004.66 1004.82 1005.02 1005.25 1005.50 1005.76 1006.02 1006.28 1006.55 1006.84 1007.14 1007.48 1007.85 1008.25 1008.68
1018.83 1018.56 1018.22 1017.78 1017.28 1016.71 1016.10 1015.45 1014.79 1014.12 1013.44 1012.77 1012.09 1011.40 1010.70 1009.99 1009.27 1008.54 1007.80 1007.08 1006.38 1005.72 1005.12 1004.59 1004.15 1003.80 1003.55 1003.41 1003.36 1003.38 1003.48 1003.63 1003.83 1004.07 1004.33 1004.62 1004.93 1005.27 1005.64 1006.04 1006.47 1006.94 1007.44 1007.96
Thickness
5442 5454 5457 5462 5467 5471 5471 5477 5481 5492 5495 5499 5502 5503 5504 5505 5506 5508 5509 5512 5514 5515 5516 5518 5520 5523 5525 5526 5528 5529 5530 5530 5530 5530 5529 5528 5527 5525 5524 5522 5520 5518 5516 5513
5435 5449 5452 5453 5461 5466 5470 5476 5478 5481 5484 5491 5491 5493 5492 5492 5494 5495 5496 5499 5501 5502 5505 5506 5508 5510 5512 5514 5516 5517 5518 5517 5518 5518 5517 5516 5515 5514 5513 5511 5510 5508 5505 5503
5428 5440 5442 5439 5446 5454 5461 5465 5470 5472 5473 5476 5477 5479 5479 5481 5483 5483 5485 5487 5489 5490 5491 5493 5495 5498 5499 5501 5503 5504 5504 5505 5505 5506 5505 5504 5504 5503 5502 5500 5498 5496 5494 5492
5417 5423 5422 5428 5438 5444 5447 5449 5455 5460 5462 5465 5465 5466 5469 5471 5471 5472 5473 5475 5477 5478 5479 5481 5483 5485 5487 5488 5490 5491 5491 5492 5492 5493 5493 5492 5491 5490 5489 5489 5487 5485 5483 5481
5407 5412 5420 5424 5425 5427 5432 5432 5438 5444 5447 5450 5453 5454 5455 5459 5460 5461 5462 5464 5465 5467 5468 5469 5470 5472 5475 5475 5476 5477 5478 5479 5479 5480 5480 5479 5478 5477 5477 5476 5475 5473 5471 5470
5404 5408 5413 5408 5411 5417 5423 5421 5422 5429 5430 5432 5440 5441 5441 5446 5449 5451 5452 5453 5454 5455 5456 5457 5458 5461 5462 5462 5463 5464 5465 5465 5466 5467 5467 5467 5466 5465 5465 5464 5463 5461 5459 5458
5393 5395 5396 5388 5398 5410 5411 5407 5410 5415 5417 5420 5422 5427 5430 5434 5435 5437 5439 5440 5442 5443 5443 5444 5446 5448 5449 5449 5449 5450 5452 5453 5454 5454 5454 5454 5454 5454 5453 5452 5450 5449 5447 5446
5383 5387 5384 5378 5388 5387 5387 5394 5400 5403 5404 5407 5411 5415 5418 5419 5421 5423 5425 5427 5429 5430 5430 5431 5433 5435 5435 5434 5436 5438 5440 5441 5441 5441 5442 5442 5442 5441 5440 5439 5437 5436 5434 5433
5365 5366 5367 5370 5371 5374 5378 5381 5386 5389 5392 5395 5398 5400 5402 5405 5407 5408 5411 5413 5415 5417 5418 5418 5419 5421 5421 5421 5423 5425 5426 5427 5428 5429 5429 5429 5429 5428 5427 5426 5425 5424 5423 5421
5355 5357 5360 5362 5364 5366 5369 5371 5375 5378 5382 5385 5386 5388 5390 5392 5393 5395 5398 5400 5402 5404 5405 5405 5406 5407 5408 5409 5411 5412 5413 5414 5415 5416 5416 5416 5416 5416 5415 5414 5412 5412 5411 5410
5344 5345 5350 5352 5353 5355 5358 5361 5365 5367 5370 5373 5376 5377 5379 5380 5381 5383 5385 5387 5389 5391 5392 5392 5394 5395 5396 5397 5398 5399 5400 5401 5401 5402 5403 5403 5402 5402 5402 5402 5402 5401 5400 5399
5332 5335 5336 5340 5343 5346 5348 5350 5353 5356 5358 5361 5364 5366 5368 5369 5370 5371 5373 5375 5376 5378 5379 5380 5381 5382 5383 5384 5386 5387 5387 5388 5388 5389 5390 5390 5390 5390 5390 5390 5391 5390 5390 5389
5322 5327 5328 5333 5335 5336 5338 5340 5343 5345 5347 5349 5352 5355 5357 5358 5359 5360 5362 5363 5364 5365 5367 5368 5369 5370 5370 5372 5373 5374 5375 5375 5376 5377 5378 5378 5378 5378 5378 5378 5379 5379 5379 5379
5317 5319 5320 5322 5323 5325 5327 5330 5332 5334 5336 5338 5341 5344 5345 5346 5347 5349 5350 5352 5353 5354 5355 5356 5357 5358 5359 5360 5362 5362 5363 5364 5364 5365 5366 5366 5366 5367 5367 5367 5366 5366 5367 5368
5309 5310 5311 5313 5314 5316 5317 5319 5320 5321 5324 5326 5329 5331 5333 5334 5335 5336 5338 5340 5342 5343 5344 5345 5346 5346 5348 5349 5350 5351 5351 5352 5353 5353 5354 5355 5355 5355 5355 5356 5356 5356 5356 5357
5301 5302 5303 5304 5305 5306 5308 5309 5310 5311 5313 5315 5317 5319 5320 5322 5323 5325 5327 5328 5330 5331 5332 5333 5334 5335 5337 5338 5340 5340 5340 5342 5343 5343 5343 5343 5344 5344 5344 5344 5345 5345 5345 5346
5293 5294 5295 5296 5297 5298 5299 5300 5301 5302 5304 5305 5306 5308 5309 5311 5312 5313 5315 5316 5318 5319 5320 5322 5323 5325 5327 5328 5329 5329 5330 5331 5332 5332 5332 5332 5333 5333 5333 5333 5334 5334 5335 5336
5289 5289 5289 5289 5289 5290 5291 5292 5292 5293 5295 5296 5297 5298 5299 5301 5302 5304 5305 5306 5307 5308 5309 5311 5313 5315 5317 5318 5319 5319 5320 5320 5321 5321 5321 5322 5322 5323 5323 5324 5324 5324 5325 5326
5285 5284 5284 5284 5284 5284 5284 5284 5285 5285 5286 5287 5288 5289 5290 5292 5293 5294 5295 5296 5298 5299 5300 5302 5305 5305 5306 5307 5309 5309 5309 5310 5310 5311 5311 5312 5312 5312 5313 5314 5314 5315 5316 5317
5279 5278 5277 5276 5276 5276 5276 5277 5278 5278 5278 5279 5280 5280 5282 5283 5284 5286 5287 5287 5289 5291 5292 5294 5295 5296 5297 5298 5300 5299 5300 5300 5300 5301 5302 5302 5302 5303 5303 5304 5305 5306 5307 5308
5271 5271 5270 5269 5269 5269 5269 5269 5269 5269 5270 5271 5271 5271 5273 5274 5276 5277 5279 5280 5281 5283 5285 5287 5287 5288 5289 5291 5292 5291 5291 5292 5292 5292 5292 5293 5293 5294 5295 5295 5297 5299 5300 5301
5264 5264 5264 5263 5262 5262 5262 5262 5261 5262 5262 5262 5263 5263 5264 5266 5267 5269 5270 5271 5274 5276 5278 5279 5280 5281 5283 5284 5284 5284 5284 5284 5284 5284 5284 5285 5285 5286 5287 5288 5289 5291 5293 5294
5259 5258 5258 5257 5256 5255 5255 5254 5254 5254 5253 5254 5254 5255 5256 5258 5260 5262 5263 5265 5267 5269 5271 5272 5274 5275 5276 5276 5277 5277 5277 5277 5277 5277 5277 5278 5279 5279 5280 5282 5283 5284 5286 5287
5253 5252 5251 5250 5249 5248 5247 5247 5247 5247 5246 5247 5248 5248 5249 5251 5253 5255 5256 5259 5261 5263 5264 5265 5267 5269 5270 5269 5270 5270 5270 5270 5271 5271 5271 5272 5273 5274 5275 5276 5277 5278 5280 5281
5246 5245 5244 5243 5243 5242 5242 5241 5240 5240 5240 5240 5241 5243 5244 5245 5246 5248 5250 5252 5254 5256 5257 5259 5261 5262 5262 5263 5263 5263 5264 5265 5265 5266 5267 5268 5269 5270 5270 5271 5272 5273 5274 5275
5240 5240 5239 5238 5237 5237 5236 5236 5235 5235 5235 5235 5236 5237 5239 5240 5241 5242 5244 5246 5248 5250 5251 5252 5253 5255 5256 5256 5257 5258 5259 5259 5260 5261 5262 5264 5265 5265 5266 5267 5268 5268 5270 5271
5235 5234 5233 5233 5233 5232 5231 5230 5229 5229 5229 5230 5230 5232 5233 5235 5236 5237 5239 5240 5242 5243 5245 5246 5248 5249 5250 5251 5253 5253 5255 5256 5257 5258 5259 5260 5261 5261 5262 5262 5263 5265 5266 5267